Coleman A. Young Municipal Airport
KDET : now visible

Airfield :











YOU CAN JOIN US ON...

 
LOGIN :

Register | Disclaimer

   EN    FR    IT 

 









Legend :    VFR   Marginal VFR   IFR   Intensive IFR   Very Intensive IFR
Visi :
Ceiling :
>= 8 km
>= 3000ft
5 to 8 km
1000 to 3000 ft
1500m to 5 km
500 to 1000 ft
800 to 1500m
200 to 500 ft
< 800m
< 200 ft
Symbols :   Thunderstorms  Fog  Heavy snow  Heavy precipitations  Wind > 20 kt






- Airport Elevation : 626 ft
- IATA code : DET


KDET - Coleman A. Young Municipal

CURRENT METAR :
  • 130453Z 25003KT 10SM CLR 12/07 A2993 RMK AO2 SLP137 T01170067 401670094

EXPIRED METARs :
  • 130353Z 26005KT 10SM CLR 13/07 A2992 RMK AO2 SLP133 T01280072
  • 130253Z 27006KT 10SM SCT055 14/08 A2990 RMK AO2 SLP124 T01390078 51023

TAF KDET
Valid from the 13 at 00:00 until the 14 at 00:00 UTC


122320Z 1300/1324 27010KT P6SM SCT045 BKN060
FM130200 25005KT P6SM SCT060
FM130400 24004KT P6SM SKC
FM131400 21008G16KT P6SM BKN200
KZOB FIR / North America



MET'MAP, your aeronautical weather chart ! - Copyright ORBIFLY December 2007 - Disclaimer

ORBIFLY MET'MAP TEAM :

Programming & Development : Alexandra Zaïnal
Concept & original design : Baudouin d'Aumeries
Assistance for programming : Marc-Olivier Méhu
Technical & hardware support : Manuel Goepfert

Contact : metmap@orbifly.com




SOURCES & CREDITS :

   NOAA       Earth
Advisory